This demonstration page uses our WeatherBlox Daily Observations layout. Learn more.

Left ArrowRight Arrow

47.50024, -111.30081

Hourly Observations for May 21, 2017

Temp ( °F °C ) Dew Point ( °F °C ) Humidity (%) Winds ( mph kmh ) Pressure ( in mb ) Visibility ( mi km ) Precip ( " mm )
12:53 am 00:53 Clear 44 6.7 41 5 89 89 SW 10 17 30.16 1022 10 16 0.00 0.00
1:53 am 01:53 Mostly Clear 44 6.7 40 4.4 85 85 SW 12 19 30.17 1022 10 16 0.00 0.00
2:53 am 02:53 Clear 41 5 38 3.3 89 89 SW 9 15 30.18 1022 10 16 0.00 0.00
3:53 am 03:53 Partly Cloudy 42 5.6 39 3.9 89 89 SW 9 15 30.21 1023 10 16 0.00 0.00
4:53 am 04:53 Mostly Clear 42 5.6 39 3.9 89 89 SW 10 17 30.22 1023 10 16 0.00 0.00
5:53 am 05:53 Mostly Sunny 41 5 38 3.3 89 89 SW 12 19 30.24 1024 10 16 0.00 0.00
6:53 am 06:53 Sunny 44 6.7 40 4.4 85 85 SW 10 17 30.24 1024 10 16 0.00 0.00
7:53 am 07:53 Sunny 48 8.9 41 5 77 77 SW 9 15 30.25 1024 10 16 0.00 0.00
8:53 am 08:53 Mostly Cloudy 52 11.1 42 5.6 69 69 SW 10 17 30.26 1025 10 16 0.00 0.00
9:53 am 09:53 Mostly Sunny 57 13.9 42 5.6 58 58 SW 7 11 30.24 1024 10 16 0.00 0.00
10:53 am 10:53 Mostly Sunny 62 16.7 43 6.1 50 50 SW 9 15 30.23 1024 10 16 0.00 0.00
11:53 am 11:53 Mostly Sunny 64 17.8 38 3.3 38 38 Calm 30.21 1023 10 16 0.00 0.00
12:53 pm 12:53 Mostly Cloudy 67 19.4 35 1.7 31 31 WNW 6 9 30.20 1023 10 16 0.00 0.00
1:53 pm 13:53 Mostly Sunny 68 20 35 1.7 30 30 WNW 12 19 30.18 1022 10 16 0.00 0.00
2:45 pm 14:45 Mostly Cloudy 66 18.9 32 0 28 28 NW 14 22 30.00 1016 10 16 0.00 0.00
2:53 pm 14:53 Cloudy 65 18.3 33 0.6 31 31 NNE 10 17 30.20 1023 10 16 0.00 0.00
3:53 pm 15:53 Partly Cloudy 70 21.1 31 -0.6 23 23 WNW 13 20 30.15 1021 10 16 0.00 0.00
4:53 pm 16:53 Partly Cloudy 71 21.7 31 -0.6 23 23 NW 10 17 30.14 1021 10 16 0.00 0.00
5:53 pm 17:53 Mostly Cloudy 70 21.1 32 0 25 25 WNW 13 20 30.14 1021 10 16 0.00 0.00
6:53 pm 18:53 Mostly Cloudy 66 18.9 35 1.7 32 32 W 7 11 30.14 1021 10 16 0.00 0.00
7:53 pm 19:53 Mostly Sunny 64 17.8 37 2.8 37 37 W 7 11 30.13 1020 10 16 0.00 0.00
8:53 pm 20:53 Cloudy 57 13.9 44 6.7 62 62 WSW 7 11 30.13 1020 10 16 0.00 0.00
9:53 pm 21:53 Mostly Clear 53 11.7 39 3.9 59 59 WNW 3 6 30.15 1021 10 16 0.00 0.00
10:53 pm 22:53 Cloudy 51 10.6 41 5 69 69 W 7 11 30.14 1021 10 16 0.00 0.00
11:53 pm 23:53 Cloudy 53 11.7 41 5 64 64 W 7 11 30.14 1021 10 16 0.00 0.00

Powered by AerisWeather